Volver al catálogo

COSMOS 1036

ActivoMilitarLEO
NORAD 11045·PAYLOAD·🇷🇺 Russia

Lanzado Oct 4, 1978 desde Plesetsk Cosmodrome

Loading…

Próximos Pases (próximas 24 horas)

TLE

ActualizadoSource: Space-Track

Época: Sep 14, 2026, 05:13 UTC

1 11045U 78091C   26257.21803785 -.00000001  00000-0  99471-4 0  9998
2 11045  74.0367 183.3902 0024335  18.8032 132.6218 12.50853260189356

Sigue COSMOS 1036 en tiempo real con AllMySat

Download on the App Store